This is the latest recevied weather packets stored in our database for station/object MB7UIK. If no packets are shown the sender has not sent any weather packets the latest 1 day(s).
| Time | Temp. | Humidity | Pressure | Rain* | Wind** | Luminosity | Snow |
|---|---|---|---|---|---|---|---|
| 1777966845 | 12.22° C | 100% | 1012 hPa | 0 mm | 2.24 m/s, 355° | - | - |
| 1777966785 | 12.22° C | 100% | 1012.1 hPa | 0 mm | 3.58 m/s, 20° | - | - |
| 1777966725 | 12.22° C | 100% | 1012.1 hPa | 0 mm | 2.68 m/s, 21° | - | - |
| 1777966665 | 12.22° C | 100% | 1012.1 hPa | 0 mm | 3.13 m/s, 18° | - | - |
| 1777966631 | 12.22° C | 100% | 1012.1 hPa | 0 mm | 3.13 m/s, 18° | - | - |
| 1777966605 | 12.22° C | 100% | 1012.1 hPa | 0 mm | 1.34 m/s, 350° | - | - |
| 1777966544 | 12.22° C | 100% | 1012.1 hPa | 0 mm | 1.34 m/s, 52° | - | - |
| 1777966484 | 12.22° C | 100% | 1012.2 hPa | 0 mm | 1.34 m/s, 360° | - | - |
| 1777966424 | 12.22° C | 100% | 1012.2 hPa | 0 mm | 1.79 m/s, 45° | - | - |
| 1777966364 | 12.22° C | 100% | 1012.2 hPa | 0 mm | 1.34 m/s, 22° | - | - |
| 1777966332 | 12.22° C | 100% | 1012.2 hPa | 0 mm | 1.34 m/s, 22° | - | - |
| 1777966305 | 12.22° C | 100% | 1012.2 hPa | 0 mm | 1.79 m/s, 19° | - | - |
| 1777966244 | 12.22° C | 100% | 1012.3 hPa | 0 mm | 2.68 m/s, 17° | - | - |
| 1777966184 | 12.22° C | 100% | 1012.2 hPa | 0 mm | 3.13 m/s, 40° | - | - |
| 1777966124 | 12.22° C | 100% | 1012.2 hPa | 0 mm | 1.79 m/s, 355° | - | - |
| 1777966065 | 12.22° C | 100% | 1012.2 hPa | 0 mm | 1.34 m/s, 10° | - | - |
| 1777966031 | 12.22° C | 100% | 1012.2 hPa | 0 mm | 1.34 m/s, 10° | - | - |
| 1777966005 | 12.22° C | 100% | 1012.2 hPa | 0 mm | 4.47 m/s, 36° | - | - |
| 1777965945 | 12.22° C | 100% | 1012.2 hPa | 0 mm | 0.89 m/s, 344° | - | - |
| 1777965885 | 12.22° C | 100% | 1012.2 hPa | 0 mm | 0.89 m/s, 42° | - | - |
| 1777965825 | 12.22° C | 100% | 1012.3 hPa | 0 mm | 1.34 m/s, 52° | - | - |
| 1777965765 | 12.22° C | 100% | 1012.3 hPa | 0 mm | 1.79 m/s, 25° | - | - |
| 1777965733 | 12.22° C | 100% | 1012.3 hPa | 0 mm | 1.79 m/s, 25° | - | - |
| 1777965706 | 12.22° C | 100% | 1012.2 hPa | 0 mm | 3.13 m/s, 9° | - | - |
| 1777965646 | 12.22° C | 100% | 1012.3 hPa | 0 mm | 2.24 m/s, 360° | - | - |
* Rain latest hour (hover to see other rain measurements)
** Current wind speed in m/s (hover to see current wind gust speed)